OBJECT D, 44313

Orbit data source: Space-Track

You're viewing an Uncataloged Satellite

Recently launched and/or uncataloged satellites may have evolving metadata. Metadata may include but not limited to: Owner, Maufacturer, Bus, Motor, and Mission.

OBJECT D, 44313 is a satellite owned by Changsha Tianyi (CN) in LEO that was launched on Wed, 05 Jun 2019 UTC via a CHANG ZHENG 11 launch vehicle from the Yellow Sea Launch Area, China (YSLA). Unknown objects in Earth's orbit typically refer to objects detected orbiting the Earth but have not yet been identified or cataloged. These objects could be anything from previously untracked satellites, spent rocket stages, debris from satellite collisions, or even natural meteoroids temporarily captured by Earth's gravity.

Loading next visibility...
Identifier
44313, 2019-032D
Orbit
LEO
Last TLE update
9 hours ago
Origin
Flag of CNCTYK (CN / PRC)
Manufacturer
Changsha Tianyi
Mission
Operational Commercial Imaging
Bus & Motor
CUBESAT 6U, Unknown motor
Mass
~10 kg wet, 10 kg dry
Launch date (UTC)
2019-06-05 (6 years ago)
Launch vehicle
CHANG ZHENG 11
Launch site
Yellow Sea Launch Area, China (YSLA)
Object type
Unknown
Shape & HBR
Box + 2 Pan, 1 m
Radar Cross Section
0.126 m², Small (<0.1 m²)

Expand to show TLE details & history

TLE from 9 hours ago
0 OBJECT D
1 44313U 19032D   25128.92527423  .00059409  00000-0  10173-2 0  9993
2 44313  44.9925 346.9723 0016712 207.0432 152.9590 15.50313644326766
Epoch: 2025-05-08T22:12Z
Definitive object data (Epoch: 2025-05-08T22:12:23.693Z)
Latitude
-0.00004°
Longitude
146.88476°
Altitude
425.923 km
Speed
7.652 km/s
True Right ascension
23h 07m 53s
True Declination
0° 00' 00"
Sunlit
Object was in daylight at TLE epoch
Visualization TLE readout
Latitude
-44.85261°
Longitude
63.05838°
Altitude
425.409 km
Speed
7.659 km/s
Apparent Right ascension
22h 29m 40s
Apparent Declination
-72° 08' 20"
Sunlit
Object is in full shadow
Visualization observer readout
Local Sidereal Time
15:16:19
Azimuth
156.454° SSE
Elevation
-43.216°
Doppler factor
1
Orbital elements
Apogee altitude
428.793 km
Perigee altitude
406.079 km
Semi-major axis
6,795.573 km
Eccentricity
0.0016712
Inclination
44.9925°
RAAN
346.9723°
Arg. of periapsis
207.0432°
True anomaly
153.0459°
Mean anomaly
152.959°
Eccentric anomaly
153.00247°
Mean motion
3.8744 °/min
BSTAR
0.0010173
Orbital period
92.92 mins
Loading maneuver chart data...
Loading SW <> Apogee altitude chart data...
Loading historical data...
Loading historical data...
Loading historical data...
Loading historical data...
Loading historical data...
Loading historical data...
Loading historical data...

OBJECT D Visibility forecast

Observer location: undefined°, undefined°

Span
Click to sort rows by Start time (UTC) header in descending order
Start Az.
Max El. time (UTC)
Max El. Az.
Max El.
End time (UTC)
End Az.
5 mins2025-05-09 16:56:22.242Z190.722° SSW2025-05-09 16:58:22.242Z154.969° SSE18.337°2025-05-09 17:01:22.242Z93.897° ESE
4 mins2025-05-09 18:34:22.242Z256.195° W2025-05-09 18:36:22.242Z43.451° NE40.971°2025-05-09 18:38:22.242Z63.179° ENE
5 mins2025-05-09 20:11:22.242Z298.383° NW2025-05-09 20:13:22.242Z352.577° N29.02°2025-05-09 20:16:22.242Z61.731° ENE
4 mins2025-05-09 21:49:22.242Z311.254° NW2025-05-09 21:51:22.242Z28.052° NE34.902°2025-05-09 21:53:22.242Z82.23° E
5 mins2025-05-09 23:26:22.242Z275.594° WNW2025-05-09 23:28:22.242Z214.313° SW34.409°2025-05-09 23:31:22.242Z139.347° SSE
|